Time,TemperatureF,DewpointF,PressureIn,WindDirection,WindDirectionDegrees,WindSpeedMPH,WindSpeedGustMPH,Humidity,HourlyPrecipIn,Conditions,Clouds,dailyrainin,SoftwareType,DateUTC
2013-05-02 00:02:00,32.0,32.0,-100.00,NW,310,16.0,24.0,99,0.00,,,0.03,,2013-05-02 05:02:00,
2013-05-02 00:12:00,32.0,32.0,-100.00,WNW,295,15.0,21.0,99,0.01,,,0.03,,2013-05-02 05:12:00,
2013-05-02 00:22:00,32.0,32.0,-100.00,NW,305,12.0,19.0,99,0.01,,,0.03,,2013-05-02 05:22:00,
2013-05-02 00:32:00,32.0,32.0,-100.00,WNW,285,12.0,21.0,99,0.00,,,0.03,,2013-05-02 05:32:00,
2013-05-02 00:42:00,32.0,32.0,-100.00,WNW,290,11.0,17.0,99,0.00,,,0.03,,2013-05-02 05:42:00,
2013-05-02 00:51:00,32.0,32.0,-100.00,WNW,290,15.0,21.0,99,0.00,,,0.03,,2013-05-02 05:51:00,
2013-05-02 01:01:00,32.0,32.0,-100.00,NW,305,12.0,19.0,99,0.00,,,0.03,,2013-05-02 06:01:00,
2013-05-02 01:12:00,32.0,32.0,-100.00,WNW,295,12.0,21.0,99,0.00,,,0.03,,2013-05-02 06:12:00,
2013-05-02 01:21:00,32.0,32.0,-100.00,WNW,295,15.0,24.0,99,0.00,,,0.03,,2013-05-02 06:21:00,
2013-05-02 01:31:00,32.0,32.0,-100.00,NW,310,16.0,20.0,99,0.00,,,0.03,,2013-05-02 06:31:00,
2013-05-02 01:42:00,32.0,32.0,-100.00,WNW,295,13.0,21.0,99,0.00,,,0.03,,2013-05-02 06:42:00,
2013-05-02 01:52:00,32.0,32.0,-100.00,NW,305,10.0,21.0,99,0.00,,,0.03,,2013-05-02 06:52:00,
2013-05-02 02:02:00,32.0,32.0,-100.00,NW,305,14.0,26.0,99,0.00,,,0.03,,2013-05-02 07:02:00,
2013-05-02 02:11:00,32.0,32.0,-100.00,NW,305,16.0,22.0,99,0.00,,,0.03,,2013-05-02 07:11:00,
2013-05-02 02:21:00,32.0,32.0,-100.00,WNW,300,15.0,22.0,99,0.00,,,0.03,,2013-05-02 07:21:00,
2013-05-02 02:32:00,32.0,32.0,-100.00,WNW,295,14.0,24.0,99,0.00,,,0.03,,2013-05-02 07:32:00,
2013-05-02 02:41:00,32.0,32.0,-100.00,WNW,295,13.0,21.0,99,0.00,,,0.03,,2013-05-02 07:41:00,
2013-05-02 02:52:00,32.0,32.0,-100.00,WNW,300,16.0,22.0,99,0.00,,,0.03,,2013-05-02 07:52:00,
2013-05-02 03:02:00,32.0,32.0,-100.00,NW,305,15.0,23.0,99,0.00,,,0.03,,2013-05-02 08:02:00,
2013-05-02 03:11:00,32.0,32.0,-100.00,WNW,295,16.0,26.0,99,0.00,,,0.03,,2013-05-02 08:11:00,
2013-05-02 03:22:00,32.0,32.0,-100.00,WNW,295,16.0,26.0,99,0.00,,,0.03,,2013-05-02 08:22:00,
2013-05-02 03:32:00,32.0,32.0,-100.00,WNW,295,16.0,26.0,99,0.00,,,0.03,,2013-05-02 08:32:00,
2013-05-02 03:42:00,32.0,32.0,-100.00,WNW,295,16.0,26.0,99,0.00,,,0.03,,2013-05-02 08:42:00,
2013-05-02 03:52:00,32.0,32.0,-100.00,WNW,295,16.0,26.0,99,0.00,,,0.03,,2013-05-02 08:52:00,
2013-05-02 10:43:00,36.0,36.0,-100.00,West,275,10.0,23.0,99,0.00,,,0.00,,2013-05-02 15:43:00,
2013-05-02 11:02:00,36.0,36.0,-100.00,WNW,290,12.0,22.0,98,0.00,,,0.00,,2013-05-02 16:02:00,
2013-05-02 11:13:00,36.0,34.0,-100.00,WNW,290,16.0,21.0,93,0.00,,,0.00,,2013-05-02 16:13:00,
2013-05-02 11:22:00,37.0,34.0,-100.00,WNW,290,12.0,21.0,89,0.00,,,0.00,,2013-05-02 16:22:00,
2013-05-02 11:32:00,37.0,34.0,-100.00,WNW,290,14.0,21.0,87,0.00,,,0.00,,2013-05-02 16:32:00,
2013-05-02 11:43:00,35.0,32.0,-100.00,WNW,285,15.0,24.0,88,0.00,,,0.00,,2013-05-02 16:43:00,
2013-05-02 11:52:00,35.0,32.0,-100.00,WNW,295,19.0,23.0,86,0.00,,,0.00,,2013-05-02 16:52:00,
2013-05-02 12:02:00,35.0,32.0,-100.00,WNW,290,17.0,23.0,86,0.00,,,0.00,,2013-05-02 17:02:00,
2013-05-02 12:12:00,36.0,32.0,-100.00,West,280,15.0,23.0,83,0.00,,,0.00,,2013-05-02 17:12:00,
2013-05-02 12:22:00,36.0,32.0,-100.00,WNW,285,17.0,23.0,82,0.00,,,0.00,,2013-05-02 17:22:00,
2013-05-02 12:32:00,36.0,32.0,-100.00,West,275,16.0,23.0,83,0.00,,,0.00,,2013-05-02 17:32:00,
2013-05-02 12:42:00,36.0,30.0,-100.00,West,280,16.0,26.0,81,0.00,,,0.00,,2013-05-02 17:42:00,
2013-05-02 12:51:00,36.0,30.0,-100.00,WNW,290,19.0,23.0,80,0.00,,,0.00,,2013-05-02 17:51:00,
2013-05-02 13:01:00,36.0,30.0,-100.00,WNW,285,18.0,27.0,80,0.00,,,0.00,,2013-05-02 18:01:00,
2013-05-02 13:11:00,36.0,30.0,-100.00,West,280,16.0,24.0,80,0.00,,,0.00,,2013-05-02 18:11:00,
2013-05-02 13:21:00,36.0,30.0,-100.00,WNW,290,15.0,23.0,80,0.00,,,0.00,,2013-05-02 18:21:00,
2013-05-02 13:32:00,36.0,30.0,-100.00,WNW,290,18.0,25.0,79,0.00,,,0.00,,2013-05-02 18:32:00,
2013-05-02 13:41:00,36.0,30.0,-100.00,WNW,285,19.0,26.0,77,0.00,,,0.00,,2013-05-02 18:41:00,
2013-05-02 13:51:00,36.0,30.0,-100.00,West,280,17.0,26.0,78,0.00,,,0.00,,2013-05-02 18:51:00,
2013-05-02 14:01:00,37.0,30.0,-100.00,WNW,290,20.0,24.0,75,0.00,,,0.00,,2013-05-02 19:01:00,
2013-05-02 14:11:00,37.0,30.0,-100.00,West,280,15.0,24.0,77,0.00,,,0.00,,2013-05-02 19:11:00,
2013-05-02 14:21:00,37.0,30.0,-100.00,WNW,290,16.0,24.0,75,0.00,,,0.00,,2013-05-02 19:21:00,
2013-05-02 14:32:00,36.0,30.0,-100.00,WNW,290,16.0,27.0,75,0.00,,,0.00,,2013-05-02 19:32:00,
2013-05-02 14:42:00,37.0,30.0,-100.00,WNW,290,16.0,24.0,75,0.00,,,0.00,,2013-05-02 19:42:00,
2013-05-02 14:52:00,36.0,28.0,-100.00,WNW,290,19.0,23.0,74,0.00,,,0.00,,2013-05-02 19:52:00,
2013-05-02 15:02:00,37.0,30.0,-100.00,West,280,16.0,21.0,75,0.00,,,0.00,,2013-05-02 20:02:00,
2013-05-02 15:11:00,37.0,30.0,-100.00,West,280,14.0,21.0,74,0.00,,,0.00,,2013-05-02 20:11:00,
2013-05-02 15:22:00,37.0,30.0,-100.00,WNW,285,16.0,21.0,73,0.00,,,0.00,,2013-05-02 20:22:00,
2013-05-02 15:32:00,37.0,30.0,-100.00,WNW,285,13.0,21.0,73,0.00,,,0.00,,2013-05-02 20:32:00,
2013-05-02 15:41:00,37.0,30.0,-100.00,NW,305,10.0,16.0,73,0.00,,,0.00,,2013-05-02 20:41:00,
2013-05-02 15:52:00,37.0,30.0,-100.00,NW,305,9.0,14.0,73,0.00,,,0.00,,2013-05-02 20:52:00,
2013-05-02 16:01:00,37.0,28.0,-100.00,NW,305,11.0,15.0,72,0.00,,,0.00,,2013-05-02 21:01:00,
2013-05-02 16:11:00,38.0,28.0,-100.00,NW,310,9.0,15.0,71,0.00,,,0.00,,2013-05-02 21:11:00,
2013-05-02 16:21:00,38.0,28.0,-100.00,WNW,295,10.0,14.0,70,0.00,,,0.00,,2013-05-02 21:21:00,
2013-05-02 16:33:00,38.0,30.0,-100.00,WNW,300,9.0,14.0,71,0.00,,,0.00,,2013-05-02 21:33:00,
2013-05-02 16:42:00,38.0,30.0,-100.00,WNW,300,8.0,13.0,71,0.00,,,0.00,,2013-05-02 21:42:00,
2013-05-02 16:53:00,38.0,30.0,-100.00,WNW,295,8.0,14.0,70,0.00,,,0.00,,2013-05-02 21:53:00,
2013-05-02 17:02:00,38.0,30.0,-100.00,NW,305,9.0,16.0,72,0.00,,,0.00,,2013-05-02 22:02:00,
2013-05-02 17:12:00,37.0,30.0,-100.00,NW,320,11.0,15.0,73,0.00,,,0.00,,2013-05-02 22:12:00,
2013-05-02 17:22:00,37.0,30.0,-100.00,WNW,300,9.0,14.0,74,0.00,,,0.00,,2013-05-02 22:22:00,
2013-05-02 17:32:00,37.0,30.0,-100.00,WNW,300,9.0,13.0,75,0.00,,,0.00,,2013-05-02 22:32:00,
2013-05-02 17:42:00,37.0,30.0,-100.00,WNW,300,7.0,11.0,75,0.00,,,0.00,,2013-05-02 22:42:00,
2013-05-02 17:52:00,37.0,30.0,-100.00,NW,310,11.0,13.0,75,0.00,,,0.00,,2013-05-02 22:52:00,
2013-05-02 18:02:00,37.0,30.0,-100.00,NW,305,9.0,13.0,76,0.00,,,0.00,,2013-05-02 23:02:00,
2013-05-02 18:11:00,37.0,30.0,-100.00,NW,305,9.0,12.0,75,0.00,,,0.00,,2013-05-02 23:11:00,
2013-05-02 18:22:00,37.0,30.0,-100.00,WNW,295,7.0,13.0,75,0.00,,,0.00,,2013-05-02 23:22:00,
2013-05-02 18:32:00,37.0,30.0,-100.00,WNW,300,7.0,11.0,75,0.00,,,0.00,,2013-05-02 23:32:00,
2013-05-02 18:42:00,36.0,30.0,-100.00,NW,305,7.0,11.0,76,0.00,,,0.00,,2013-05-02 23:42:00,
2013-05-02 18:51:00,36.0,30.0,-100.00,WNW,300,5.0,9.0,77,0.00,,,0.00,,2013-05-02 23:51:00,
2013-05-02 19:01:00,36.0,30.0,-100.00,WNW,300,7.0,11.0,76,0.00,,,0.00,,2013-05-03 00:01:00,
2013-05-02 19:11:00,36.0,30.0,-100.00,NW,310,9.0,11.0,76,0.00,,,0.00,,2013-05-03 00:11:00,
2013-05-02 19:21:00,36.0,30.0,-100.00,NW,305,5.0,9.0,78,0.00,,,0.00,,2013-05-03 00:21:00,
2013-05-02 19:31:00,36.0,30.0,-100.00,NW,315,7.0,9.0,79,0.00,,,0.00,,2013-05-03 00:31:00,
2013-05-02 19:41:00,36.0,30.0,-100.00,NW,315,7.0,9.0,80,0.00,,,0.00,,2013-05-03 00:41:00,
2013-05-02 19:52:00,35.0,30.0,-100.00,NW,320,9.0,11.0,82,0.00,,,0.00,,2013-05-03 00:52:00,
2013-05-02 20:01:00,35.0,30.0,-100.00,NW,325,7.0,9.0,84,0.00,,,0.00,,2013-05-03 01:01:00,
2013-05-02 20:11:00,35.0,32.0,-100.00,NNW,335,6.0,7.0,88,0.00,,,0.00,,2013-05-03 01:11:00,
2013-05-02 20:21:00,34.0,32.0,-100.00,NNW,330,4.0,8.0,90,0.00,,,0.00,,2013-05-03 01:21:00,
2013-05-02 20:31:00,34.0,32.0,-100.00,NNW,330,4.0,6.0,92,0.00,,,0.00,,2013-05-03 01:31:00,
2013-05-02 20:42:00,35.0,32.0,-100.00,WNW,300,6.0,7.0,91,0.00,,,0.00,,2013-05-03 01:42:00,
2013-05-02 20:52:00,34.0,32.0,-100.00,NW,305,5.0,7.0,91,0.00,,,0.00,,2013-05-03 01:52:00,
2013-05-02 21:01:00,34.0,32.0,-100.00,NW,320,6.0,9.0,92,0.00,,,0.00,,2013-05-03 02:01:00,
2013-05-02 21:11:00,34.0,32.0,-100.00,NW,310,6.0,9.0,93,0.00,,,0.00,,2013-05-03 02:11:00,
2013-05-02 21:21:00,34.0,34.0,-100.00,NW,305,4.0,9.0,94,0.00,,,0.00,,2013-05-03 02:21:00,
2013-05-02 21:32:00,34.0,34.0,-100.00,WNW,295,6.0,7.0,94,0.00,,,0.00,,2013-05-03 02:32:00,
2013-05-02 21:42:00,34.0,32.0,-100.00,WNW,300,6.0,10.0,92,0.00,,,0.00,,2013-05-03 02:42:00,
2013-05-02 21:52:00,34.0,32.0,-100.00,WNW,300,6.0,9.0,92,0.00,,,0.00,,2013-05-03 02:52:00,
2013-05-02 22:01:00,34.0,32.0,-100.00,WNW,300,6.0,9.0,92,0.00,,,0.00,,2013-05-03 03:01:00,
2013-05-02 22:11:00,34.0,32.0,-100.00,NW,315,6.0,7.0,92,0.00,,,0.00,,2013-05-03 03:11:00,
2013-05-02 22:21:00,34.0,32.0,-100.00,NW,315,6.0,9.0,92,0.00,,,0.00,,2013-05-03 03:21:00,
2013-05-02 22:33:00,34.0,32.0,-100.00,NW,315,7.0,9.0,92,0.00,,,0.00,,2013-05-03 03:33:00,
2013-05-02 22:42:00,34.0,32.0,-100.00,WNW,300,8.0,11.0,91,0.00,,,0.00,,2013-05-03 03:42:00,
2013-05-02 22:52:00,34.0,32.0,-100.00,NW,305,6.0,9.0,93,0.00,,,0.00,,2013-05-03 03:52:00,
2013-05-02 23:03:00,34.0,32.0,-100.00,WNW,290,6.0,9.0,92,0.00,,,0.00,,2013-05-03 04:03:00,
2013-05-02 23:12:00,34.0,32.0,-100.00,WNW,300,8.0,11.0,91,0.00,,,0.00,,2013-05-03 04:12:00,
2013-05-02 23:22:00,34.0,32.0,-100.00,NW,310,7.0,13.0,90,0.00,,,0.00,,2013-05-03 04:22:00,
2013-05-02 23:32:00,34.0,32.0,-100.00,WNW,300,7.0,13.0,90,0.00,,,0.00,,2013-05-03 04:32:00,
2013-05-02 23:42:00,34.0,32.0,-100.00,NW,305,7.0,9.0,91,0.00,,,0.00,,2013-05-03 04:42:00,
2013-05-02 23:52:00,34.0,32.0,-100.00,NW,305,7.0,12.0,90,0.00,,,0.00,,2013-05-03 04:52:00,